| time (UTC) | temp F | wind direction | speed MPH | gust MPH | rain 1hr in | rain 24hr in | rain mn in | humidity % | barometer mb |
| 20260831065714 | 69 | 159 | 0.0 | 0.0 | 0.00 | 0.00 | 0.00 | 97 | 1016.2 |
| 20260831065213 | 69 | 156 | 1.0 | 2.0 | 0.00 | 0.00 | 0.00 | 97 | 1016.1 |
| 20260831064708 | 69 | 160 | 1.0 | 1.0 | 0.00 | 0.00 | 0.00 | 97 | 1016.2 |
| 20260831064203 | 69 | 149 | 0.0 | 0.0 | 0.00 | 0.00 | 0.00 | 97 | 1016.3 |
| 20260831063659 | 69 | 143 | 0.0 | 0.0 | 0.00 | 0.00 | 0.00 | 97 | 1015.9 |
| 20260831063154 | 69 | 133 | 0.0 | 0.0 | 0.00 | 0.00 | 0.00 | 97 | 1016.3 |
| 20260831062654 | 69 | 141 | 0.0 | 1.0 | 0.00 | 0.00 | 0.00 | 97 | 1016.1 |
| 20260831062148 | 69 | 128 | 0.0 | 0.0 | 0.00 | 0.00 | 0.00 | 97 | 1016.3 |
| 20260831061646 | 69 | 144 | 0.0 | 0.0 | 0.00 | 0.00 | 0.00 | 97 | 1016.5 |
| 20260831061142 | 69 | 153 | 1.0 | 1.0 | 0.00 | 0.00 | 0.00 | 97 | 1016.5 |
| 20260831060638 | 69 | 153 | 2.0 | 3.0 | 0.00 | 0.00 | 0.00 | 97 | 1016.6 |
| 20260831060138 | 69 | 143 | 0.0 | 1.0 | 0.00 | 0.00 | 0.00 | 98 | 1016.5 |
| 20260831055637 | 69 | 138 | 0.0 | 0.0 | 0.00 | 0.00 | 0.00 | 98 | 1016.4 |
| 20260831055132 | 69 | 134 | 0.0 | 0.0 | 0.00 | 0.00 | 0.00 | 98 | 1016.7 |
| 20260831054632 | 69 | 143 | 0.0 | 0.0 | 0.00 | 0.00 | 0.00 | 98 | 1016.5 |
| 20260831054132 | 69 | 136 | 0.0 | 0.0 | 0.00 | 0.00 | 0.00 | 98 | 1016.5 |
| 20260831053627 | 69 | 116 | 0.0 | 0.0 | 0.00 | 0.00 | 0.00 | 98 | 1016.4 |
| 20260831053126 | 69 | 122 | 1.0 | 1.0 | 0.00 | 0.00 | 0.00 | 98 | 1016.4 |
| 20260831052625 | 69 | 124 | 0.0 | 1.0 | 0.00 | 0.00 | 0.00 | 98 | 1016.5 |
| 20260831052124 | 69 | 131 | 0.0 | 1.0 | 0.00 | 0.00 | 0.00 | 98 | 1016.4 |
| 20260831051622 | 69 | 132 | 0.0 | 0.0 | 0.00 | 0.00 | 0.00 | 98 | 1016.5 |
| 20260831051121 | 69 | 138 | 1.0 | 1.0 | 0.00 | 0.00 | 0.00 | 98 | 1016.3 |
| 20260831050622 | 69 | 160 | 1.0 | 1.0 | 0.00 | 0.00 | 0.00 | 98 | 1016.4 |
| 20260831050121 | 69 | 142 | 0.0 | 0.0 | 0.00 | 0.00 | 0.00 | 98 | 1016.7 |
| 20260831045620 | 70 | 147 | 0.0 | 0.0 | 0.00 | 0.00 | 0.00 | 98 | 1016.5 |
| 20260831045116 | 70 | 148 | 0.0 | 0.0 | 0.00 | 0.00 | 0.00 | 98 | 1016.7 |
| 20260831044611 | 70 | 148 | 0.0 | 0.0 | 0.00 | 0.00 | 0.00 | 97 | 1016.6 |
| 20260831044106 | 70 | 150 | 0.0 | 0.0 | 0.00 | 0.00 | 0.00 | 97 | 1016.7 |
| 20260831043601 | 70 | 143 | 0.0 | 0.0 | 0.00 | 0.00 | 0.00 | 97 | 1016.7 |
| 20260831043056 | 70 | 158 | 1.0 | 2.0 | 0.00 | 0.00 | 0.00 | 97 | 1016.5 |
| 20260831042555 | 70 | 154 | 1.0 | 1.0 | 0.00 | 0.00 | 0.00 | 97 | 1016.9 |
| 20260831042051 | 70 | 174 | 0.0 | 1.0 | 0.00 | 0.00 | 0.00 | 97 | 1016.5 |
| 20260831041546 | 70 | 161 | 0.0 | 0.0 | 0.00 | 0.00 | 0.00 | 97 | 1016.6 |
| 20260831041045 | 70 | 149 | 0.0 | 0.0 | 0.00 | 0.00 | 0.00 | 97 | 1016.9 |
| 20260831040539 | 70 | 143 | 0.0 | 0.0 | 0.00 | 0.00 | 0.00 | 97 | 1016.8 |
| 20260831040034 | 70 | 143 | 0.0 | 0.0 | 0.00 | 0.00 | 0.00 | 97 | 1016.8 |
| 20260831035531 | 70 | 143 | 0.0 | 0.0 | 0.00 | 0.02 | 0.02 | 97 | 1016.8 |
| 20260831035026 | 70 | 157 | 0.0 | 0.0 | 0.00 | 0.02 | 0.02 | 98 | 1016.8 |
| 20260831034521 | 70 | 82 | 0.0 | 0.0 | 0.00 | 0.02 | 0.02 | 98 | 1016.9 |
| 20260831034016 | 69 | 161 | 1.0 | 1.0 | 0.00 | 0.02 | 0.02 | 99 | 1016.5 |
| 20260831033512 | 69 | 150 | 0.0 | 1.0 | 0.00 | 0.02 | 0.02 | 99 | 1016.7 |
| 20260831033007 | 69 | 177 | 0.0 | 0.0 | 0.00 | 0.02 | 0.02 | 99 | 1016.6 |
| 20260831032506 | 69 | 184 | 2.0 | 2.0 | 0.00 | 0.02 | 0.02 | 99 | 1016.8 |
| 20260831032002 | 69 | 164 | 1.0 | 1.0 | 0.00 | 0.02 | 0.02 | 99 | 1017.1 |
| 20260831031501 | 69 | 153 | 0.0 | 0.0 | 0.00 | 0.02 | 0.02 | 99 | 1017.0 |
| 20260831031001 | 69 | 138 | 0.0 | 0.0 | 0.00 | 0.02 | 0.02 | 99 | 1017.1 |
| 20260831030500 | 69 | 136 | 0.0 | 0.0 | 0.00 | 0.02 | 0.02 | 99 | 1017.2 |
| 20260831025958 | 69 | 136 | 0.0 | 0.0 | 0.00 | 0.02 | 0.02 | 99 | 1017.2 |
| 20260831025457 | 69 | 136 | 0.0 | 1.0 | 0.00 | 0.02 | 0.02 | 99 | 1017.5 |
| 20260831024953 | 69 | 135 | 0.0 | 0.0 | 0.00 | 0.02 | 0.02 | 99 | 1017.2 |
| 20260831024449 | 69 | 134 | 0.0 | 0.0 | 0.00 | 0.02 | 0.02 | 99 | 1017.6 |
| 20260831023948 | 69 | 133 | 0.0 | 0.0 | 0.00 | 0.02 | 0.02 | 99 | 1017.6 |
| 20260831023446 | 69 | 133 | 0.0 | 0.0 | 0.00 | 0.02 | 0.02 | 99 | 1017.6 |
| 20260831022942 | 69 | 133 | 0.0 | 0.0 | 0.00 | 0.02 | 0.02 | 99 | 1017.6 |
| 20260831022440 | 69 | 135 | 0.0 | 0.0 | 0.00 | 0.02 | 0.02 | 99 | 1017.4 |
| 20260831021935 | 69 | 135 | 0.0 | 0.0 | 0.00 | 0.02 | 0.02 | 99 | 1017.5 |
| 20260831021435 | 69 | 136 | 0.0 | 0.0 | 0.00 | 0.02 | 0.02 | 99 | 1017.6 |
| 20260831020931 | 69 | 136 | 0.0 | 0.0 | 0.00 | 0.02 | 0.02 | 99 | 1017.3 |
| 20260831020430 | 69 | 135 | 0.0 | 0.0 | 0.00 | 0.02 | 0.02 | 99 | 1017.3 |
| 20260831015925 | 69 | 123 | 0.0 | 0.0 | 0.00 | 0.02 | 0.02 | 99 | 1017.7 |
| 20260831015421 | 69 | 122 | 0.0 | 0.0 | 0.00 | 0.02 | 0.02 | 99 | 1017.7 |
| 20260831014916 | 69 | 122 | 0.0 | 0.0 | 0.00 | 0.02 | 0.02 | 99 | 1017.7 |
| 20260831014411 | 69 | 122 | 0.0 | 0.0 | 0.00 | 0.02 | 0.02 | 99 | 1017.5 |
| 20260831013907 | 69 | 116 | 0.0 | 0.0 | 0.00 | 0.02 | 0.02 | 99 | 1017.8 |
| 20260831013402 | 69 | 109 | 0.0 | 0.0 | 0.00 | 0.02 | 0.02 | 99 | 1017.6 |
| 20260831012856 | 70 | 98 | 0.0 | 0.0 | 0.00 | 0.02 | 0.02 | 99 | 1017.7 |
| 20260831012352 | 70 | 98 | 0.0 | 0.0 | 0.00 | 0.02 | 0.02 | 99 | 1017.8 |
| 20260831011851 | 70 | 52 | 0.0 | 0.0 | 0.00 | 0.02 | 0.02 | 99 | 1017.7 |
| 20260831011346 | 70 | 44 | 0.0 | 0.0 | 0.00 | 0.02 | 0.02 | 99 | 1017.7 |
| 20260831010842 | 69 | 44 | 0.0 | 0.0 | 0.00 | 0.02 | 0.02 | 99 | 1017.6 |
| 20260831010342 | 70 | 44 | 0.0 | 0.0 | 0.00 | 0.02 | 0.02 | 99 | 1017.6 |
| 20260831005838 | 70 | 44 | 0.0 | 0.0 | 0.00 | 0.02 | 0.02 | 99 | 1017.5 |
| 20260831005333 | 70 | 44 | 0.0 | 0.0 | 0.00 | 0.02 | 0.02 | 99 | 1017.5 |
| 20260831004828 | 70 | 44 | 0.0 | 0.0 | 0.00 | 0.02 | 0.02 | 99 | 1017.3 |
| 20260831004324 | 70 | 43 | 0.0 | 0.0 | 0.00 | 0.02 | 0.02 | 99 | 1017.4 |
| 20260831003820 | 70 | 27 | 0.0 | 0.0 | 0.00 | 0.02 | 0.02 | 99 | 1017.4 |
| 20260831003316 | 70 | 27 | 0.0 | 0.0 | 0.00 | 0.02 | 0.02 | 99 | 1017.5 |
| 20260831002815 | 70 | 27 | 0.0 | 0.0 | 0.00 | 0.02 | 0.02 | 98 | 1017.4 |
| 20260831002314 | 70 | 26 | 0.0 | 0.0 | 0.00 | 0.02 | 0.02 | 98 | 1017.4 |
| 20260831001810 | 70 | 26 | 0.0 | 0.0 | 0.00 | 0.02 | 0.02 | 98 | 1017.2 |
| 20260831001305 | 70 | 26 | 0.0 | 0.0 | 0.00 | 0.02 | 0.02 | 97 | 1017.4 |
| 20260831000803 | 70 | 26 | 0.0 | 0.0 | 0.00 | 0.02 | 0.02 | 97 | 1017.4 |
| 20260831000303 | 70 | 26 | 0.0 | 0.0 | 0.00 | 0.02 | 0.02 | 97 | 1017.5 |
| 20260830235801 | 71 | 26 | 0.0 | 0.0 | 0.00 | 0.02 | 0.02 | 97 | 1017.6 |
| 20260830235256 | 71 | 26 | 0.0 | 0.0 | 0.00 | 0.02 | 0.02 | 97 | 1017.4 |
| 20260830234751 | 71 | 26 | 0.0 | 0.0 | 0.00 | 0.02 | 0.02 | 96 | 1017.4 |
| 20260830234247 | 71 | 26 | 0.0 | 0.0 | 0.00 | 0.02 | 0.02 | 96 | 1017.1 |
| 20260830233742 | 71 | 26 | 0.0 | 0.0 | 0.00 | 0.02 | 0.02 | 96 | 1017.1 |
| 20260830233238 | 71 | 26 | 0.0 | 0.0 | 0.00 | 0.02 | 0.02 | 96 | 1017.1 |
| 20260830232733 | 71 | 26 | 1.0 | 1.0 | 0.00 | 0.02 | 0.02 | 96 | 1016.7 |
| 20260830232229 | 72 | 14 | 2.0 | 2.0 | 0.00 | 0.02 | 0.02 | 95 | 1016.8 |
| 20260830231725 | 72 | 3 | 0.0 | 0.0 | 0.00 | 0.02 | 0.02 | 95 | 1016.7 |
| 20260830231225 | 72 | 208 | 0.0 | 0.0 | 0.00 | 0.02 | 0.02 | 94 | 1016.5 |
| 20260830230720 | 72 | 207 | 0.0 | 0.0 | 0.00 | 0.02 | 0.02 | 93 | 1016.5 |
| 20260830230215 | 72 | 207 | 0.0 | 0.0 | 0.00 | 0.02 | 0.02 | 92 | 1016.2 |
| 20260830225709 | 73 | 207 | 0.0 | 0.0 | 0.00 | 0.02 | 0.02 | 91 | 1016.4 |
| 20260830225204 | 73 | 207 | 0.0 | 0.0 | 0.00 | 0.02 | 0.02 | 92 | 1016.1 |
| 20260830224702 | 73 | 208 | 0.0 | 0.0 | 0.00 | 0.02 | 0.02 | 90 | 1016.1 |
| 20260830224159 | 74 | 208 | 0.0 | 0.0 | 0.00 | 0.02 | 0.02 | 91 | 1016.2 |
| 20260830223655 | 74 | 208 | 0.0 | 0.0 | 0.00 | 0.02 | 0.02 | 91 | 1015.7 |
| 20260830223155 | 74 | 208 | 0.0 | 0.0 | 0.00 | 0.02 | 0.02 | 90 | 1015.9 |
| 20260830222650 | 74 | 208 | 0.0 | 0.0 | 0.00 | 0.02 | 0.02 | 88 | 1016.1 |
| 20260830222146 | 74 | 208 | 0.0 | 0.0 | 0.00 | 0.02 | 0.02 | 88 | 1015.8 |
| 20260830221641 | 74 | 208 | 0.0 | 0.0 | 0.00 | 0.02 | 0.02 | 87 | 1015.8 |
| 20260830221138 | 74 | 208 | 0.0 | 0.0 | 0.00 | 0.02 | 0.02 | 88 | 1015.7 |
| 20260830220633 | 74 | 186 | 0.0 | 0.0 | 0.00 | 0.02 | 0.02 | 87 | 1015.7 |
| 20260830220132 | 74 | 162 | 0.0 | 0.0 | 0.00 | 0.02 | 0.02 | 86 | 1015.5 |
| 20260830215631 | 74 | 230 | 0.0 | 0.0 | 0.00 | 0.02 | 0.02 | 85 | 1015.8 |
| 20260830215125 | 73 | 230 | 0.0 | 0.0 | 0.00 | 0.02 | 0.02 | 87 | 1015.8 |
| 20260830214621 | 73 | 188 | 0.0 | 0.0 | 0.00 | 0.02 | 0.02 | 86 | 1015.3 |
| 20260830214116 | 73 | 129 | 1.0 | 2.0 | 0.00 | 0.02 | 0.02 | 86 | 1015.1 |
| 20260830213615 | 73 | 178 | 3.0 | 5.0 | 0.00 | 0.02 | 0.02 | 88 | 1015.7 |
| 20260830213110 | 73 | 151 | 0.0 | 0.0 | 0.00 | 0.02 | 0.02 | 91 | 1016.0 |
| 20260830212606 | 73 | 203 | 0.0 | 0.0 | 0.00 | 0.02 | 0.02 | 91 | 1016.0 |
| 20260830212101 | 73 | 197 | 0.0 | 0.0 | 0.00 | 0.02 | 0.02 | 92 | 1016.2 |
| 20260830211556 | 73 | 148 | 0.0 | 0.0 | 0.00 | 0.02 | 0.02 | 93 | 1016.3 |
| 20260830211055 | 73 | 148 | 0.0 | 0.0 | 0.00 | 0.02 | 0.02 | 94 | 1016.3 |
| 20260830210551 | 73 | 148 | 0.0 | 0.0 | 0.00 | 0.02 | 0.02 | 94 | 1016.3 |
| 20260830210050 | 73 | 151 | 0.0 | 0.0 | 0.00 | 0.02 | 0.02 | 94 | 1016.3 |
| 20260830205547 | 73 | 113 | 0.0 | 0.0 | 0.00 | 0.02 | 0.02 | 93 | 1016.2 |
| 20260830205043 | 73 | 113 | 0.0 | 0.0 | 0.00 | 0.02 | 0.02 | 93 | 1016.3 |
| 20260830204542 | 72 | 113 | 0.0 | 0.0 | 0.00 | 0.02 | 0.02 | 93 | 1016.3 |
| 20260830204042 | 72 | 119 | 0.0 | 0.0 | 0.00 | 0.02 | 0.02 | 93 | 1016.5 |
| 20260830203538 | 72 | 125 | 0.0 | 0.0 | 0.05 | 0.02 | 0.02 | 93 | 1016.4 |
| 20260830203038 | 72 | 206 | 0.0 | 0.0 | 0.05 | 0.02 | 0.02 | 93 | 1016.4 |
| 20260830202533 | 72 | 188 | 0.0 | 0.0 | 0.00 | 0.01 | 0.01 | 93 | 1016.3 |
| 20260830202029 | 72 | 191 | 1.0 | 1.0 | 0.00 | 0.01 | 0.01 | 93 | 1016.4 |
| 20260830201528 | 72 | 204 | 3.0 | 3.0 | 0.00 | 0.01 | 0.01 | 92 | 1016.3 |
| 20260830201023 | 72 | 185 | 1.0 | 2.0 | 0.00 | 0.01 | 0.01 | 92 | 1016.5 |
| 20260830200518 | 72 | 173 | 0.0 | 0.0 | 0.00 | 0.01 | 0.01 | 93 | 1016.2 |
| 20260830200017 | 73 | 140 | 0.0 | 0.0 | 0.00 | 0.01 | 0.01 | 90 | 1016.7 |
| 20260830195513 | 72 | 141 | 0.0 | 0.0 | 0.00 | 0.01 | 0.01 | 92 | 1016.8 |
| 20260830195011 | 72 | 159 | 0.0 | 0.0 | 0.00 | 0.01 | 0.01 | 91 | 1016.9 |
| 20260830194510 | 72 | 169 | 0.0 | 0.0 | 0.07 | 0.01 | 0.01 | 90 | 1017.0 |
| 20260830194005 | 72 | 175 | 0.0 | 0.0 | 0.07 | 0.01 | 0.01 | 89 | 1017.1 |
| 20260830193504 | 72 | 170 | 0.0 | 0.0 | 0.00 | 0.00 | 0.00 | 89 | 1017.2 |
| 20260830192959 | 72 | 169 | 1.0 | 1.0 | 0.00 | 0.00 | 0.00 | 89 | 1017.2 |
| 20260830192454 | 72 | 177 | 1.0 | 2.0 | 0.00 | 0.00 | 0.00 | 88 | 1017.1 |
| 20260830191949 | 72 | 201 | 2.0 | 2.0 | 0.00 | 0.00 | 0.00 | 88 | 1017.4 |
| 20260830191444 | 72 | 182 | 0.0 | 0.0 | 0.00 | 0.00 | 0.00 | 87 | 1017.6 |
| 20260830190939 | 73 | 173 | 1.0 | 1.0 | 0.00 | 0.00 | 0.00 | 86 | 1017.6 |
| 20260830190434 | 73 | 172 | 0.0 | 0.0 | 0.00 | 0.00 | 0.00 | 85 | 1017.8 |
| 20260830185933 | 74 | 173 | 1.0 | 1.0 | 0.00 | 0.00 | 0.00 | 82 | 1017.7 |
| 20260830185429 | 75 | 231 | 1.0 | 1.0 | 0.00 | 0.00 | 0.00 | 79 | 1017.8 |
| 20260830184924 | 75 | 231 | 0.0 | 0.0 | 0.00 | 0.00 | 0.00 | 79 | 1018.2 |
| 20260830184423 | 75 | 231 | 0.0 | 0.0 | 0.00 | 0.00 | 0.00 | 78 | 1018.1 |
| 20260830183918 | 75 | 232 | 0.0 | 0.0 | 0.00 | 0.00 | 0.00 | 79 | 1018.6 |
| 20260830183412 | 75 | 232 | 0.0 | 0.0 | 0.00 | 0.00 | 0.00 | 80 | 1018.5 |
| 20260830182908 | 75 | 231 | 0.0 | 0.0 | 0.00 | 0.00 | 0.00 | 78 | 1018.6 |
| 20260830182403 | 75 | 232 | 0.0 | 0.0 | 0.00 | 0.00 | 0.00 | 79 | 1018.5 |
| 20260830181859 | 75 | 231 | 0.0 | 0.0 | 0.00 | 0.00 | 0.00 | 77 | 1018.3 |
| 20260830181354 | 75 | 237 | 0.0 | 0.0 | 0.00 | 0.00 | 0.00 | 78 | 1018.7 |
| 20260830180849 | 75 | 239 | 0.0 | 1.0 | 0.00 | 0.00 | 0.00 | 76 | 1018.6 |
| 20260830180343 | 75 | 258 | 1.0 | 1.0 | 0.00 | 0.00 | 0.00 | 75 | 1018.5 |
| 20260830175842 | 76 | 225 | 0.0 | 0.0 | 0.00 | 0.00 | 0.00 | 77 | 1018.6 |
| 20260830175337 | 75 | 227 | 0.0 | 0.0 | 0.00 | 0.00 | 0.00 | 77 | 1018.8 |
| 20260830174832 | 75 | 283 | 0.0 | 0.0 | 0.00 | 0.00 | 0.00 | 77 | 1018.8 |
| 20260830174327 | 75 | 283 | 0.0 | 1.0 | 0.00 | 0.00 | 0.00 | 77 | 1018.7 |
| 20260830173827 | 75 | 40 | 0.0 | 1.0 | 0.00 | 0.00 | 0.00 | 77 | 1018.7 |
| 20260830173322 | 75 | 21 | 1.0 | 2.0 | 0.00 | 0.00 | 0.00 | 78 | 1018.9 |
| 20260830172819 | 74 | 65 | 0.0 | 0.0 | 0.00 | 0.00 | 0.00 | 79 | 1018.7 |
| 20260830172315 | 75 | 52 | 0.0 | 0.0 | 0.00 | 0.00 | 0.00 | 79 | 1018.8 |
| 20260830171811 | 74 | 29 | 1.0 | 1.0 | 0.00 | 0.00 | 0.00 | 81 | 1018.8 |
| 20260830171306 | 74 | 26 | 1.0 | 1.0 | 0.00 | 0.00 | 0.00 | 80 | 1018.8 |
| 20260830170801 | 74 | 17 | 0.0 | 0.0 | 0.00 | 0.00 | 0.00 | 81 | 1018.7 |
| 20260830170300 | 73 | 19 | 1.0 | 2.0 | 0.00 | 0.00 | 0.00 | 81 | 1018.9 |
| 20260830165759 | 73 | 9 | 0.0 | 0.0 | 0.00 | 0.00 | 0.00 | 84 | 1019.0 |
| 20260830165255 | 73 | 21 | 0.0 | 1.0 | 0.00 | 0.00 | 0.00 | 84 | 1019.3 |
| 20260830164751 | 73 | 37 | 1.0 | 2.0 | 0.00 | 0.00 | 0.00 | 85 | 1019.2 |
| 20260830164247 | 73 | 36 | 1.0 | 2.0 | 0.00 | 0.00 | 0.00 | 87 | 1019.2 |
| 20260830163743 | 73 | 27 | 1.0 | 1.0 | 0.00 | 0.00 | 0.00 | 87 | 1019.4 |
| 20260830163239 | 73 | 36 | 2.0 | 2.0 | 0.00 | 0.00 | 0.00 | 87 | 1019.2 |
| 20260830162733 | 73 | 21 | 0.0 | 1.0 | 0.00 | 0.00 | 0.00 | 87 | 1019.6 |
| 20260830162229 | 73 | 30 | 1.0 | 2.0 | 0.00 | 0.00 | 0.00 | 87 | 1019.7 |
| 20260830161725 | 73 | 58 | 1.0 | 1.0 | 0.00 | 0.00 | 0.00 | 86 | 1019.6 |
| 20260830161219 | 74 | 188 | 0.0 | 0.0 | 0.00 | 0.00 | 0.00 | 84 | 1019.4 |
| 20260830160715 | 74 | 187 | 0.0 | 0.0 | 0.00 | 0.00 | 0.00 | 86 | 1019.4 |
| 20260830160209 | 73 | 187 | 0.0 | 0.0 | 0.00 | 0.00 | 0.00 | 87 | 1019.4 |
| 20260830155706 | 73 | 189 | 0.0 | 0.0 | 0.00 | 0.00 | 0.00 | 85 | 1019.5 |
| 20260830155201 | 73 | 190 | 0.0 | 0.0 | 0.00 | 0.00 | 0.00 | 86 | 1019.3 |
| 20260830154656 | 73 | 195 | 0.0 | 0.0 | 0.00 | 0.00 | 0.00 | 85 | 1019.4 |
| 20260830154152 | 72 | 195 | 0.0 | 0.0 | 0.00 | 0.00 | 0.00 | 87 | 1019.4 |
| 20260830153648 | 72 | 195 | 0.0 | 0.0 | 0.00 | 0.00 | 0.00 | 88 | 1019.2 |
| 20260830153148 | 71 | 195 | 0.0 | 0.0 | 0.00 | 0.00 | 0.00 | 88 | 1019.2 |
| 20260830152647 | 72 | 184 | 0.0 | 0.0 | 0.00 | 0.00 | 0.00 | 89 | 1019.4 |
| 20260830152146 | 72 | 184 | 0.0 | 0.0 | 0.00 | 0.00 | 0.00 | 87 | 1019.4 |
| 20260830151642 | 72 | 185 | 0.0 | 0.0 | 0.00 | 0.00 | 0.00 | 85 | 1019.1 |
| 20260830151141 | 72 | 178 | 0.0 | 0.0 | 0.00 | 0.00 | 0.00 | 84 | 1019.2 |
| 20260830150636 | 72 | 178 | 0.0 | 0.0 | 0.00 | 0.00 | 0.00 | 83 | 1019.2 |
| 20260830150131 | 73 | 178 | 0.0 | 0.0 | 0.00 | 0.00 | 0.00 | 83 | 1018.9 |
| 20260830145630 | 73 | 177 | 0.0 | 0.0 | 0.00 | 0.00 | 0.00 | 83 | 1018.9 |
| 20260830145125 | 73 | 177 | 0.0 | 0.0 | 0.00 | 0.00 | 0.00 | 80 | 1019.1 |
| 20260830144621 | 73 | 177 | 0.0 | 0.0 | 0.00 | 0.00 | 0.00 | 81 | 1018.6 |
| 20260830144117 | 73 | 177 | 0.0 | 0.0 | 0.00 | 0.00 | 0.00 | 84 | 1018.8 |
| 20260830143613 | 72 | 177 | 0.0 | 0.0 | 0.00 | 0.00 | 0.00 | 85 | 1018.6 |
| 20260830143110 | 72 | 177 | 0.0 | 0.0 | 0.00 | 0.00 | 0.00 | 86 | 1018.6 |
| 20260830142606 | 72 | 176 | 0.0 | 0.0 | 0.00 | 0.00 | 0.00 | 87 | 1018.6 |
| 20260830142100 | 71 | 177 | 0.0 | 0.0 | 0.00 | 0.00 | 0.00 | 87 | 1018.3 |
| 20260830141556 | 71 | 177 | 0.0 | 0.0 | 0.00 | 0.00 | 0.00 | 87 | 1018.5 |
| 20260830141051 | 71 | 177 | 0.0 | 0.0 | 0.00 | 0.00 | 0.00 | 86 | 1018.3 |
| 20260830140545 | 71 | 177 | 0.0 | 0.0 | 0.00 | 0.00 | 0.00 | 84 | 1018.1 |
| 20260830140041 | 71 | 177 | 0.0 | 0.0 | 0.00 | 0.00 | 0.00 | 82 | 1018.3 |
| 20260830135535 | 71 | 177 | 0.0 | 0.0 | 0.00 | 0.00 | 0.00 | 81 | 1018.1 |
| 20260830135030 | 71 | 177 | 0.0 | 0.0 | 0.00 | 0.00 | 0.00 | 81 | 1017.8 |
| 20260830134527 | 71 | 178 | 0.0 | 0.0 | 0.00 | 0.00 | 0.00 | 81 | 1017.9 |
| 20260830134022 | 71 | 179 | 0.0 | 0.0 | 0.00 | 0.00 | 0.00 | 83 | 1017.8 |
| 20260830133517 | 71 | 173 | 0.0 | 0.0 | 0.00 | 0.00 | 0.00 | 82 | 1017.7 |
| 20260830133012 | 71 | 174 | 0.0 | 0.0 | 0.00 | 0.00 | 0.00 | 80 | 1017.5 |
| 20260830132508 | 71 | 153 | 0.0 | 1.0 | 0.00 | 0.00 | 0.00 | 80 | 1017.5 |
| 20260830132008 | 71 | 180 | 1.0 | 2.0 | 0.00 | 0.00 | 0.00 | 81 | 1017.5 |
| 20260830131507 | 71 | 180 | 0.0 | 0.0 | 0.00 | 0.00 | 0.00 | 81 | 1017.6 |
| 20260830131002 | 70 | 179 | 1.0 | 1.0 | 0.00 | 0.00 | 0.00 | 80 | 1017.7 |
| 20260830130457 | 70 | 193 | 0.0 | 0.0 | 0.00 | 0.00 | 0.00 | 81 | 1017.7 |
| 20260830125956 | 70 | 181 | 0.0 | 0.0 | 0.00 | 0.00 | 0.00 | 81 | 1017.8 |
| 20260830125452 | 69 | 176 | 1.0 | 2.0 | 0.00 | 0.00 | 0.00 | 81 | 1017.8 |
| 20260830124950 | 69 | 185 | 0.0 | 1.0 | 0.00 | 0.00 | 0.00 | 82 | 1017.8 |
| 20260830124445 | 69 | 176 | 1.0 | 1.0 | 0.00 | 0.00 | 0.00 | 83 | 1017.9 |
| 20260830123941 | 68 | 173 | 0.0 | 0.0 | 0.00 | 0.00 | 0.00 | 83 | 1018.0 |
| 20260830123438 | 68 | 162 | 0.0 | 0.0 | 0.00 | 0.00 | 0.00 | 83 | 1017.8 |
| 20260830122936 | 68 | 175 | 1.0 | 1.0 | 0.00 | 0.00 | 0.00 | 83 | 1017.6 |
| 20260830122435 | 68 | 173 | 0.0 | 0.0 | 0.00 | 0.00 | 0.00 | 83 | 1017.8 |
| 20260830121930 | 68 | 155 | 0.0 | 0.0 | 0.00 | 0.00 | 0.00 | 84 | 1017.6 |
| 20260830121426 | 67 | 163 | 0.0 | 0.0 | 0.00 | 0.00 | 0.00 | 84 | 1017.7 |
| 20260830120920 | 67 | 165 | 3.0 | 3.0 | 0.00 | 0.00 | 0.00 | 84 | 1017.9 |
| 20260830120416 | 67 | 166 | 0.0 | 0.0 | 0.00 | 0.00 | 0.00 | 85 | 1017.7 |
| 20260830115912 | 67 | 174 | 0.0 | 0.0 | 0.00 | 0.00 | 0.00 | 85 | 1017.8 |
| 20260830115408 | 66 | 167 | 0.0 | 0.0 | 0.00 | 0.00 | 0.00 | 86 | 1017.6 |
| 20260830114903 | 66 | 167 | 0.0 | 0.0 | 0.00 | 0.00 | 0.00 | 86 | 1017.9 |
| 20260830114400 | 66 | 180 | 1.0 | 1.0 | 0.00 | 0.00 | 0.00 | 86 | 1017.6 |
| 20260830113859 | 66 | 162 | 0.0 | 0.0 | 0.00 | 0.00 | 0.00 | 87 | 1017.8 |
| 20260830113354 | 66 | 156 | 2.0 | 2.0 | 0.00 | 0.00 | 0.00 | 87 | 1017.6 |
| 20260830112850 | 66 | 158 | 0.0 | 0.0 | 0.00 | 0.00 | 0.00 | 88 | 1017.6 |
| 20260830112346 | 66 | 158 | 0.0 | 0.0 | 0.00 | 0.00 | 0.00 | 88 | 1017.5 |
| 20260830111842 | 65 | 157 | 0.0 | 0.0 | 0.00 | 0.00 | 0.00 | 88 | 1017.6 |
| 20260830111337 | 65 | 157 | 0.0 | 0.0 | 0.00 | 0.00 | 0.00 | 88 | 1017.6 |
| 20260830110832 | 65 | 157 | 0.0 | 0.0 | 0.00 | 0.00 | 0.00 | 88 | 1017.6 |
| 20260830110328 | 65 | 157 | 0.0 | 0.0 | 0.00 | 0.00 | 0.00 | 88 | 1017.6 |
| 20260830105826 | 65 | 156 | 0.0 | 0.0 | 0.00 | 0.00 | 0.00 | 89 | 1017.5 |
| 20260830105323 | 65 | 143 | 0.0 | 0.0 | 0.00 | 0.00 | 0.00 | 88 | 1017.7 |
| 20260830104819 | 65 | 143 | 0.0 | 0.0 | 0.00 | 0.00 | 0.00 | 87 | 1017.5 |
| 20260830104316 | 65 | 151 | 0.0 | 0.0 | 0.00 | 0.00 | 0.00 | 87 | 1017.8 |
| 20260830103815 | 66 | 151 | 0.0 | 0.0 | 0.00 | 0.00 | 0.00 | 88 | 1017.8 |
| 20260830103311 | 66 | 147 | 0.0 | 0.0 | 0.00 | 0.00 | 0.00 | 87 | 1017.6 |
| 20260830102809 | 66 | 158 | 0.0 | 0.0 | 0.00 | 0.00 | 0.00 | 86 | 1017.8 |
| 20260830102307 | 66 | 158 | 0.0 | 0.0 | 0.00 | 0.00 | 0.00 | 86 | 1017.6 |
| 20260830101800 | 66 | 158 | 0.0 | 0.0 | 0.00 | 0.00 | 0.00 | 86 | 1017.8 |
| 20260830101256 | 66 | 158 | 0.0 | 0.0 | 0.00 | 0.00 | 0.00 | 86 | 1017.8 |
| 20260830100754 | 66 | 158 | 0.0 | 0.0 | 0.00 | 0.00 | 0.00 | 85 | 1017.8 |
| 20260830100249 | 66 | 158 | 0.0 | 0.0 | 0.00 | 0.00 | 0.00 | 84 | 1017.7 |
| 20260830095748 | 66 | 158 | 0.0 | 0.0 | 0.00 | 0.00 | 0.00 | 84 | 1017.9 |
| 20260830095244 | 66 | 158 | 0.0 | 0.0 | 0.00 | 0.00 | 0.00 | 83 | 1017.8 |
| 20260830094740 | 66 | 157 | 0.0 | 0.0 | 0.00 | 0.00 | 0.00 | 83 | 1017.9 |
| 20260830094236 | 66 | 159 | 0.0 | 0.0 | 0.00 | 0.00 | 0.00 | 83 | 1017.9 |
| 20260830093731 | 66 | 142 | 0.0 | 0.0 | 0.00 | 0.00 | 0.00 | 84 | 1017.7 |
| 20260830093227 | 65 | 142 | 0.0 | 0.0 | 0.00 | 0.00 | 0.00 | 85 | 1017.7 |
| 20260830092727 | 65 | 142 | 0.0 | 0.0 | 0.00 | 0.00 | 0.00 | 86 | 1017.8 |
| 20260830092224 | 65 | 142 | 0.0 | 0.0 | 0.00 | 0.00 | 0.00 | 87 | 1017.9 |
| 20260830091720 | 65 | 142 | 0.0 | 0.0 | 0.00 | 0.00 | 0.00 | 87 | 1017.9 |
| 20260830091219 | 65 | 142 | 0.0 | 0.0 | 0.00 | 0.00 | 0.00 | 88 | 1017.8 |
| 20260830090718 | 65 | 142 | 0.0 | 0.0 | 0.00 | 0.00 | 0.00 | 88 | 1017.8 |
| 20260830090214 | 65 | 142 | 0.0 | 0.0 | 0.00 | 0.00 | 0.00 | 89 | 1017.8 |
| 20260830085713 | 65 | 142 | 0.0 | 0.0 | 0.00 | 0.00 | 0.00 | 88 | 1017.7 |
| 20260830085209 | 65 | 142 | 0.0 | 0.0 | 0.00 | 0.00 | 0.00 | 88 | 1017.7 |
| 20260830084705 | 65 | 144 | 0.0 | 0.0 | 0.00 | 0.00 | 0.00 | 88 | 1017.5 |
| 20260830084200 | 65 | 144 | 0.0 | 0.0 | 0.00 | 0.00 | 0.00 | 88 | 1017.7 |
| 20260830083655 | 65 | 141 | 0.0 | 0.0 | 0.00 | 0.00 | 0.00 | 88 | 1017.6 |
| 20260830083150 | 65 | 146 | 1.0 | 1.0 | 0.00 | 0.00 | 0.00 | 88 | 1017.7 |
| 20260830082649 | 65 | 143 | 1.0 | 1.0 | 0.00 | 0.00 | 0.00 | 88 | 1017.8 |
| 20260830082146 | 65 | 158 | 0.0 | 0.0 | 0.00 | 0.00 | 0.00 | 89 | 1017.8 |
| 20260830081642 | 65 | 156 | 0.0 | 1.0 | 0.00 | 0.00 | 0.00 | 88 | 1017.7 |
| 20260830081140 | 65 | 152 | 0.0 | 0.0 | 0.00 | 0.00 | 0.00 | 89 | 1017.8 |
| 20260830080635 | 65 | 153 | 0.0 | 0.0 | 0.00 | 0.00 | 0.00 | 89 | 1017.8 |
| 20260830080130 | 65 | 151 | 0.0 | 0.0 | 0.00 | 0.00 | 0.00 | 90 | 1018.0 |
| 20260830075625 | 65 | 128 | 0.0 | 0.0 | 0.00 | 0.00 | 0.00 | 89 | 1017.7 |
| 20260830075120 | 65 | 127 | 0.0 | 0.0 | 0.00 | 0.00 | 0.00 | 89 | 1017.8 |
| 20260830074616 | 65 | 140 | 0.0 | 0.0 | 0.00 | 0.00 | 0.00 | 89 | 1018.1 |
| 20260830074111 | 65 | 150 | 0.0 | 0.0 | 0.00 | 0.00 | 0.00 | 89 | 1018.0 |
| 20260830073608 | 65 | 145 | 0.0 | 0.0 | 0.00 | 0.00 | 0.00 | 90 | 1017.8 |
| 20260830073102 | 65 | 142 | 0.0 | 0.0 | 0.00 | 0.00 | 0.00 | 89 | 1018.0 |
| 20260830072557 | 65 | 135 | 0.0 | 0.0 | 0.00 | 0.00 | 0.00 | 89 | 1017.9 |
| 20260830072057 | 65 | 135 | 0.0 | 0.0 | 0.00 | 0.00 | 0.00 | 89 | 1018.1 |
| 20260830071553 | 65 | 140 | 0.0 | 0.0 | 0.00 | 0.00 | 0.00 | 89 | 1018.1 |
| 20260830071050 | 65 | 135 | 0.0 | 1.0 | 0.00 | 0.00 | 0.00 | 89 | 1018.0 |
| 20260830070546 | 65 | 136 | 0.0 | 0.0 | 0.00 | 0.00 | 0.00 | 89 | 1018.0 |